This demonstration page uses our WeatherBlox Daily Observations layout. Learn more.

Left ArrowRight Arrow

39.08367, -84.50855

Hourly Observations for July 22, 2015

Temp ( °F °C ) Dew Point ( °F °C ) Humidity (%) Winds ( mph kmh ) Pressure ( in mb ) Visibility ( mi km ) Precip ( " mm )
12:53 am 00:53 Clear 70 21.1 59 15 68 68 N 7 11 29.91 1013 10 16 0.00 0.00
1:53 am 01:53 Clear 67 19.4 58 14.4 73 73 NNE 5 7 29.92 1013 10 16 0.00 0.00
2:53 am 02:53 Clear 63 17.2 59 15 87 87 Calm 29.93 1014 10 16 0.00 0.00
3:53 am 03:53 Clear 61 16.1 59 15 93 93 Calm 29.95 1014 10 16 0.00 0.00
4:53 am 04:53 Clear 59 15 58 14.4 96 96 Calm 29.96 1014 10 16 0.00 0.00
5:53 am 05:53 Clear 58 14.4 57 13.9 97 97 Calm 29.96 1015 10 16 0.00 0.00
6:53 am 06:53 Sunny 58 14.4 58 14.4 100 100 Calm 29.98 1015 10 16 0.00 0.00
7:53 am 07:53 Sunny 62 16.7 60 15.6 93 93 Calm 29.98 1015 10 16 0.00 0.00
8:53 am 08:53 Sunny 67 19.4 60 15.6 79 79 undefined N/A 29.98 1015 10 16 0.00 0.00
9:53 am 09:53 Sunny 71 21.7 57 13.9 61 61 ENE 5 7 29.98 1015 10 16 0.00 0.00
10:53 am 10:53 Sunny 74 23.3 57 13.9 56 56 Calm 29.98 1015 10 16 0.00 0.00
11:53 am 11:53 Sunny 75 23.9 56 13.3 52 52 Calm 29.99 1016 10 16 0.00 0.00
12:53 pm 12:53 Sunny 77 25 55 12.8 47 47 NE 6 9 29.99 1016 10 16 0.00 0.00
1:53 pm 13:53 Sunny 79 26.1 57 13.9 47 47 E 6 9 29.98 1015 10 16 0.00 0.00
2:53 pm 14:53 Sunny 80 26.7 55 12.8 42 42 NE 5 7 29.97 1015 10 16 0.00 0.00
3:53 pm 15:53 Sunny 80 26.7 57 13.9 45 45 VRB 3 6 29.95 1014 10 16 0.00 0.00
4:53 pm 16:53 Sunny 80 26.7 57 13.9 45 45 ENE 8 13 29.94 1014 10 16 0.00 0.00
5:53 pm 17:53 Sunny 78 25.6 57 13.9 48 48 VRB 5 7 29.94 1014 10 16 0.00 0.00
6:53 pm 18:53 Sunny 78 25.6 57 13.9 48 48 ENE 8 13 29.94 1014 10 16 0.00 0.00
7:53 pm 19:53 Sunny 76 24.4 59 15 56 56 ENE 5 7 29.94 1014 10 16 0.00 0.00
8:53 pm 20:53 Sunny 71 21.7 62 16.7 73 73 Calm 29.94 1014 10 16 0.00 0.00
9:53 pm 21:53 Clear 67 19.4 62 16.7 84 84 Calm 29.96 1015 10 16 0.00 0.00
10:53 pm 22:53 Clear 64 17.8 61 16.1 90 90 Calm 29.99 1016 10 16 0.00 0.00
11:53 pm 23:53 Clear 63 17.2 61 16.1 93 93 Calm 29.99 1016 10 16 0.00 0.00

Powered by AerisWeather